DW2973 Frederiksvaerk DK current weather conditions

sailwx.info

Wind from 232 at 13 knots

Air temperature 5.6° C
Dewpoint -7.0° C

Last reported at 2019-Dec-09 04:00 UTC.
Time now 2019-Dec-09 05:03 UTC

Location: N 55°59' E 011°59'.
View on Google Maps.

See reports from other nearby stations

  
Tides and Currents Weather Stations Pressure Air Temp Water Temp Dewpoint Dewpoint Depression Visibility Wind Speed Wind Dir Waves Ship Positions
date/time (UTC)wind fromknots sea level pressurealtimeterstation pressurevisibilityair tempwater tempwave heightnotes
2019-Dec-09 04:00 232 13 5.6
2019-Dec-09 03:45 223 11 5.6
2019-Dec-09 03:30 227 11 5.6
2019-Dec-09 03:02 229 11 5.6
2019-Dec-09 02:46 186 10 5.6
2019-Dec-09 02:31 226 11 5.6
2019-Dec-09 02:17 221 9 5.6
2019-Dec-09 02:01 219 10 5.6
2019-Dec-09 01:46 237 10 5.6
2019-Dec-09 01:31 236 11 5.6
2019-Dec-09 01:17 248 10 5.6
2019-Dec-09 01:02 223 12 5.6
2019-Dec-09 00:46 200 11 5.6
2019-Dec-09 00:31 229 9 5.6
2019-Dec-09 00:17 226 10 5.6
2019-Dec-09 00:01 223 11 5.6
2019-Dec-08 23:46 225 11 5.6
2019-Dec-08 23:31 224 10 5.6
2019-Dec-08 23:16 245 12 5.6
2019-Dec-08 23:01 231 11 5.6
2019-Dec-08 22:46 219 9 6.1
2019-Dec-08 22:30 221 11 5.6
2019-Dec-08 22:15 212 12 5.6
2019-Dec-08 22:00 215 11 6.1
2019-Dec-08 21:45 237 13 6.1
2019-Dec-08 21:30 227 12 5.6
2019-Dec-08 21:15 242 12 5.6
2019-Dec-08 21:01 224 12 5.6
2019-Dec-08 20:46 230 13 5.6
2019-Dec-08 20:31 230 13 5.6
2019-Dec-08 20:16 229 12 5.6
2019-Dec-08 20:02 228 13 5.6
2019-Dec-08 19:46 234 13 6.1
2019-Dec-08 19:30 238 13 6.1
2019-Dec-08 19:16 239 15 6.1
2019-Dec-08 19:00 252 13 6.7
2019-Dec-08 18:46 238 11 6.1
2019-Dec-08 18:30 230 11 6.1
2019-Dec-08 18:15 229 12 6.7
2019-Dec-08 18:00 238 12 6.7
2019-Dec-08 17:45 252 10 6.7
2019-Dec-08 17:32 245 12 6.7
2019-Dec-08 17:17 246 11 6.7
2019-Dec-08 17:01 237 10 6.7
2019-Dec-08 16:46 242 11 6.7
2019-Dec-08 16:31 236 13 6.7
2019-Dec-08 16:16 236 9 6.7
2019-Dec-08 16:01 240 12 6.7
2019-Dec-08 15:46 245 10 7.2
2019-Dec-08 15:31 233 11 7.2
2019-Dec-08 15:15 239 11 7.8
2019-Dec-08 15:00 249 10 7.2
2019-Dec-08 14:45 271 9 7.8
2019-Dec-08 14:30 227 13 7.8
2019-Dec-08 14:15 248 10 7.8
2019-Dec-08 14:01 246 8 8.3
2019-Dec-08 13:46 228 13 8.3
2019-Dec-08 13:31 219 13 8.3
2019-Dec-08 13:16 229 14 7.8
2019-Dec-08 13:02 213 14 7.8
2019-Dec-08 12:45 236 16 7.8
2019-Dec-08 12:31 234 16 7.8
2019-Dec-08 12:16 204 16 7.8
2019-Dec-08 12:00 217 15 7.8
2019-Dec-08 11:45 234 17 7.2
2019-Dec-08 11:30 227 16 7.2
2019-Dec-08 11:15 237 15 7.2
2019-Dec-08 11:00 227 17 7.2
2019-Dec-08 10:31 242 15 7.2
2019-Dec-08 10:16 190 15 7.2
2019-Dec-08 10:03 227 15 7.2
2019-Dec-08 09:47 213 13 6.7
2019-Dec-08 09:30 225 13 6.7
2019-Dec-08 09:15 234 14 6.7
2019-Dec-08 09:01 219 14 6.7
2019-Dec-08 08:45 235 13 7.2
2019-Dec-08 08:31 192 14 7.2
2019-Dec-08 08:16 216 13 7.2
2019-Dec-08 08:00 223 14 7.2
2019-Dec-08 07:45 226 13 7.2
2019-Dec-08 07:30 248 16 7.2
2019-Dec-08 07:16 230 15 7.2
2019-Dec-08 07:02 231 14 7.2
2019-Dec-08 06:46 236 13 6.7
2019-Dec-08 06:31 215 13 6.7
2019-Dec-08 06:17 225 13 6.7
2019-Dec-08 06:00 224 13 6.7
2019-Dec-08 05:45 207 11 6.1
2019-Dec-08 05:30 234 9 6.1
2019-Dec-08 05:16 192 9 6.1
2019-Dec-08 05:00 232 6 6.1
2019-Dec-08 04:45 203 7 6.1
2019-Dec-08 04:30 216 6 6.1
2019-Dec-08 04:15 173 6 6.7
2019-Dec-08 04:00 221 7 6.7
2019-Dec-08 03:48 222 6 6.7
2019-Dec-08 03:31 198 5 6.7
2019-Dec-08 03:16 195 5 6.7
2019-Dec-08 03:01 227 4 6.7
2019-Dec-08 02:46 223 5 6.7
2019-Dec-08 02:30 228 6 6.7
2019-Dec-08 02:16 209 5 6.1
2019-Dec-08 02:01 223 6 6.1
2019-Dec-08 01:45 228 4 6.1
2019-Dec-08 01:31 220 4 6.1
2019-Dec-08 01:16 226 3 5.6
2019-Dec-08 01:00 183 3 5.6
2019-Dec-08 00:45 219 4 5.6
2019-Dec-08 00:30 217 6 5.6
2019-Dec-08 00:15 202 7 5.6
2019-Dec-08 00:00 213 5 5.6
2019-Dec-07 23:45 236 4 5.6
2019-Dec-07 23:30 221 4 5.6
2019-Dec-07 23:15 225 2 5.6
2019-Dec-07 23:02 230 1 5.6
2019-Dec-07 22:47 240 1 5.6
2019-Dec-07 22:31 231 3 5.6
2019-Dec-07 22:16 231 4 5.6
2019-Dec-07 22:02 222 3 5.6
2019-Dec-07 21:46 261 3 5.6
2019-Dec-07 21:31 247 3 5.6
2019-Dec-07 21:15 264 3 5.6
2019-Dec-07 21:00 272 2 5.0
2019-Dec-07 20:45 268 3 5.0
2019-Dec-07 20:31 259 3 5.6
2019-Dec-07 20:15 276 3 5.6
2019-Dec-07 20:00 254 3 5.6
2019-Dec-07 19:45 286 3 5.6
2019-Dec-07 19:33 249 2 5.6
2019-Dec-07 19:16 294 2 5.6
2019-Dec-07 19:01 292 3 5.6
2019-Dec-07 18:46 300 5 6.1
2019-Dec-07 18:31 281 4 5.6
2019-Dec-07 18:16 284 5 5.6
2019-Dec-07 18:00 304 4 5.6
2019-Dec-07 17:45 253 4 6.1
2019-Dec-07 17:30 276 4 6.1
2019-Dec-07 17:15 277 5 6.1
2019-Dec-07 17:00 241 6 6.1
2019-Dec-07 16:45 291 4 6.1
2019-Dec-07 16:30 321 6 6.1
2019-Dec-07 16:15 280 5 6.1
2019-Dec-07 16:01 310 5 6.1
2019-Dec-07 15:47 318 5 6.1
2019-Dec-07 15:31 277 6 6.1
2019-Dec-07 15:16 275 6 6.1
2019-Dec-07 15:01 277 6 6.1
2019-Dec-07 14:46 281 7 6.1
2019-Dec-07 14:30 275 6 6.1
2019-Dec-07 14:15 298 6 6.1
2019-Dec-07 14:01 294 6 6.1
2019-Dec-07 13:45 273 6 6.7
2019-Dec-07 13:30 320 6 6.7
2019-Dec-07 13:15 306 6 6.7
2019-Dec-07 13:00 299 6 6.7
2019-Dec-07 12:31 295 6 6.7
2019-Dec-07 12:16 283 7 6.7
2019-Dec-07 12:01 307 7 6.7
2019-Dec-07 11:47 306 6 6.7
2019-Dec-07 11:31 300 6 6.7
2019-Dec-07 11:16 257 6 7.2
2019-Dec-07 11:01 277 6 6.7
2019-Dec-07 10:46 296 6 7.2
2019-Dec-07 10:30 314 6 6.7
2019-Dec-07 10:15 265 7 6.7
2019-Dec-07 10:01 307 7 6.7
2019-Dec-07 09:45 291 6 6.7
2019-Dec-07 09:30 287 6 6.7
2019-Dec-07 09:17 296 6 6.7
2019-Dec-07 09:01 284 8 6.1
2019-Dec-07 08:46 294 7 6.1
2019-Dec-07 08:31 240 6 6.1
2019-Dec-07 08:16 292 6 6.1
2019-Dec-07 08:01 283 6 6.1
2019-Dec-07 07:45 295 5 6.1
2019-Dec-07 07:30 293 6 6.1
2019-Dec-07 07:15 301 6 6.1
2019-Dec-07 07:00 302 6 6.1
2019-Dec-07 06:45 290 6 6.7
2019-Dec-07 06:30 287 5 7.2
2019-Dec-07 06:15 267 6 7.8
2019-Dec-07 06:00 277 6 7.8
2019-Dec-07 05:46 265 6 7.8
2019-Dec-07 05:31 227 6 7.8
2019-Dec-07 05:16 233 8 7.8
2019-Dec-07 05:01 237 9 7.8